Flag for U.S.A. Weather past 2 weeks in Daytona Beach, Florida, U.S.A.

Now
88 °F

Scattered clouds.


Feels Like: 96 °F
Forecast: 74 / 88 °F
Wind: 13 mph from West

Location: Daytona Beach Regional Airport

Current Time: Apr 26, 2015 at 4:00:39 PM

Latest Report: Apr 26, 2015 at 2:53 PM


Visibility: 9 mi

Pressure: 29.72 "Hg

Humidity: 61%

Dew point: 73 °F

Location of Daytona BeachLocation

Historic Weather in Daytona Beach — Graph

°F

Daytona Beach temperature yesterday

Maximum temperature yesterday: 87 °F (at 2:53 PM)
Minimum temperature yesterday: 68 °F (at 2:53 AM)
Average temperature yesterday: 78 °F

Past Weeks' High & Low Weather Summary

 TemperatureHumidityPressure
High90 °F (Apr 19, 2:53 PM)100% (Apr 12, 9:53 PM)30.19 "Hg (Apr 12, 9:53 PM)
Low65 °F (Apr 23, 5:53 AM)35% (Apr 23, 11:53 AM)29.72 "Hg (Apr 26, 2:53 PM)
Average75 °F82%30.00 "Hg
* Reported Apr 11 2:53 PM — Apr 26 2:53 PM, Daytona Beach, Weather by CustomWeather, © 2015

Note: Actual official high and low records may vary slightly from our data, if they occured in-between our weather recording intervals... More about our weather records

Advertising

Daytona Beach weather history for previous 24 hours

 ConditionsComfort  
Time TempWeatherWind HumidityBarometerVisibility
2:53 PM
Sun, Apr 26
88 °FScattered clouds.13 mph61%29.72 "Hg9 mi
1:53 PM84 °FBroken clouds.8 mph72%29.74 "Hg9 mi
12:53 PM82 °FBroken clouds.12 mph82%29.78 "Hg8 mi
11:53 AM77 °FBroken clouds.9 mph88%29.79 "Hg9 mi
10:53 AM84 °FPartly sunny.17 mph72%29.78 "Hg8 mi
9:53 AM81 °FScattered clouds.15 mph79%29.77 "Hg8 mi
8:53 AM78 °FPartly sunny.14 mph87%29.78 "Hg7 mi
7:53 AM76 °FFog.10 mph94%29.77 "Hg6 mi
6:53 AM75 °FFog.9 mph94%29.75 "Hg5 mi
5:53 AM75 °FPassing clouds.7 mph94%29.74 "Hg7 mi
4:53 AM76 °FOvercast.8 mph91%29.74 "Hg8 mi
3:53 AM76 °FPassing clouds.15 mph91%29.73 "Hg8 mi
2:53 AM76 °FClear.13 mph88%29.73 "Hg8 mi
1:53 AM75 °FPassing clouds.12 mph90%29.75 "Hg8 mi
12:53 AM75 °FPassing clouds.9 mph90%29.77 "Hg8 mi
11:53 PM
Sat, Apr 25
77 °FLight rain. Mostly cloudy.9 mph82%29.86 "Hg8 mi
10:53 PM78 °FOvercast.9 mph76%29.84 "Hg10 mi
9:53 PM78 °FPassing clouds.8 mph74%29.81 "Hg10 mi
8:53 PM79 °FPartly sunny.8 mph69%29.80 "Hg10 mi
7:53 PM81 °FScattered clouds.6 mph65%29.79 "Hg10 mi
6:53 PM85 °FPartly sunny.13 mph55%29.78 "Hg10 mi
5:53 PM86 °FOvercast.12 mph53%29.79 "Hg10 mi
4:53 PM87 °FBroken clouds.10 mph57%29.80 "Hg10 mi
Weather by CustomWeather, © 2015

See weather overviewHow to use our weather pages